Location: Poughquag
(41.6090°N, 73.6820°W)
Time: 12:41:10
(UTC-04:00)

A-11 Canister half - Pass Details

Date: 30 May 2020
Orbit: 1527 x 1682 km, 47.3° (Epoch: 06 July)

Event Time Altitude Azimuth Distance (km) Brightness Sun altitude
Rises 12:59:27 0° 292° (WNW) 4,715 11.5 70.2°
Reaches altitude 10° 13:02:29 10° 294° (WNW) 3,746 11.1 70.2°
Maximum altitude 13:12:02 81° 22° (NNE) 1,611 10.5 69.9°
Drops below altitude 10° 13:21:55 10° 111° (ESE) 3,861 11.3 69.4°
Sets 13:25:05 0° 112° (ESE) 4,865 11.6 69.1°
